QPF
0.00 0.01 0.01 0.00 0.00 0.00 0.00 0.00 0.00 0.00 0.01 0.00 0.01 0.00 0.00 0.01 0.01 0.01 0.01 0.01 0.00 0.00 0.01 0.01 0.02 0.02 0.01 0.01 0.01 0.02 0.02 0.02 0.01 0.02 0.01 0.01 0.01 0.01 0.01 0.01 0.02 0.03 0.03
0.00 0.01 0.01 0.02 0.01 0.01 0.00 0.00 0.00 0.00 0.00 0.01 0.00 0.00 0.00 0.00 0.00 0.00 0.01 0.01 0.01 0.01 0.00 0.01 0.01 0.01 0.01 0.01 0.00 0.01 0.01 0.01 0.01 0.02 0.03 0.02 0.02 0.02 0.01 0.02 0.02 0.02 0.02
0.01 0.00 0.01 0.01 0.02 0.02 0.01 0.00 0.00 0.00 0.00 0.01 0.01 0.01 0.02 0.01 0.00 0.00 0.01 0.00 0.01 0.01 0.01 0.00 0.00 0.00 0.01 0.01 0.01 0.01 0.01 0.02 0.02 0.02 0.03 0.03 0.04 0.03 0.02 0.02 0.02 0.03 0.02
0.01 0.01 0.02 0.01 0.01 0.01 0.01 0.00 0.00 0.00 0.00 0.00 0.01 0.01 0.01 0.01 0.01 0.00 0.00 0.00 0.00 0.01 0.01 0.00 0.00 0.00 0.00 0.00 0.01 0.01 0.01 0.02 0.02 0.02 0.02 0.02 0.03 0.04 0.03 0.03 0.02 0.02 0.02
0.01 0.01 0.02 0.02 0.03 0.03 0.02 0.00 0.00 0.01 0.00 0.00 0.01 0.02 0.01 0.01 0.01 0.00 0.01 0.01 0.00 0.00 0.00 0.00 0.00 0.00 0.00 0.00 0.00 0.00 0.01 0.01 0.01 0.01 0.01 0.01 0.02 0.03 0.03 0.02 0.02 0.02 0.02
0.01 0.02 0.02 0.02 0.02 0.03 0.02 0.02 0.02 0.02 0.00 0.00 0.00 0.01 0.00 0.01 0.02 0.01 0.01 0.01 0.00 0.00 0.00 0.00 0.00 0.00 0.00 0.00 0.01 0.01 0.01 0.01 0.01 0.01 0.01 0.01 0.01 0.02 0.02 0.02 0.02 0.02 0.02
0.01 0.02 0.03 0.03 0.03 0.02 0.02 0.02 0.02 0.01 0.00 0.00 0.00 0.01 0.01 0.00 0.01 0.00 0.01 0.01 0.01 0.00 0.00 0.00 0.00 0.00 0.00 0.01 0.01 0.01 0.01 0.01 0.01 0.01 0.01 0.01 0.01 0.01 0.01 0.02 0.02 0.02 0.02
0.01 0.02 0.03 0.04 0.05 0.04 0.03 0.04 0.03 0.02 0.01 0.01 0.00 0.01 0.01 0.01 0.01 0.01 0.01 0.02 0.01 0.00 0.00 0.00 0.00 0.00 0.00 0.00 0.00 0.00 0.00 0.00 0.01 0.01 0.01 0.02 0.01 0.01 0.01 0.01 0.02 0.02 0.03
0.01 0.02 0.04 0.04 0.04 0.03 0.03 0.05 0.05 0.03 0.02 0.01 0.01 0.01 0.01 0.01 0.02 0.02 0.03 0.02 0.01 0.00 0.00 0.00 0.00 0.00 0.00 0.00 0.00 0.00 0.00 0.00 0.00 0.00 0.01 0.02 0.02 0.01 0.01 0.02 0.03 0.03 0.03
0.01 0.03 0.03 0.02 0.02 0.02 0.02 0.03 0.03 0.03 0.03 0.02 0.02 0.02 0.02 0.02 0.02 0.03 0.03 0.02 0.01 0.01 0.01 0.01 0.01 0.00 0.00 0.00 0.00 0.00 0.00 0.00 0.00 0.00 0.00 0.01 0.01 0.02 0.02 0.02 0.02 0.03 0.02
0.01 0.01 0.02 0.01 0.01 0.01 0.02 0.03 0.03 0.03 0.03 0.03 0.03 0.03 0.02 0.02 0.02 0.03 0.03 0.02 0.01 0.01 0.01 0.01 0.01 0.01 0.01 0.01 0.00 0.00 0.00 0.00 0.00 0.00 0.00 0.01 0.01 0.01 0.01 0.02 0.02 0.03 0.03
0.00 0.01 0.01 0.01 0.00 0.01 0.01 0.02 0.02 0.02 0.02 0.02 0.02 0.03 0.03 0.02 0.02 0.03 0.03 0.02 0.01 0.01 0.01 0.01 0.02 0.02 0.02 0.01 0.01 0.01 0.00 0.00 0.00 0.00 0.01 0.01 0.01 0.01 0.01 0.01 0.02 0.02 0.03
0.01 0.01 0.01 0.01 0.01 0.01 0.01 0.01 0.01 0.01 0.01 0.01 0.01 0.01 0.02 0.02 0.02 0.02 0.03 0.03 0.04 0.03 0.02 0.02 0.02 0.02 0.02 0.01 0.01 0.01 0.01 0.01 0.00 0.00 0.01 0.01 0.01 0.01 0.01 0.02 0.02 0.02 0.04
0.01 0.02 0.01 0.01 0.01 0.01 0.01 0.01 0.02 0.03 0.02 0.02 0.02 0.01 0.01 0.02 0.02 0.02 0.03 0.03 0.04 0.05 0.04 0.03 0.02 0.02 0.02 0.02 0.01 0.01 0.01 0.01 0.01 0.01 0.00 0.01 0.01 0.01 0.01 0.02 0.02 0.03 0.03
0.02 0.03 0.03 0.02 0.02 0.02 0.02 0.01 0.01 0.02 0.02 0.02 0.02 0.02 0.02 0.01 0.01 0.02 0.02 0.01 0.02 0.03 0.03 0.03 0.03 0.02 0.02 0.02 0.02 0.01 0.01 0.01 0.01 0.01 0.01 0.01 0.01 0.01 0.01 0.02 0.02 0.02 0.02
0.04 0.03 0.03 0.03 0.03 0.02 0.02 0.02 0.01 0.01 0.01 0.01 0.01 0.01 0.02 0.02 0.02 0.02 0.02 0.03 0.03 0.03 0.03 0.02 0.02 0.02 0.02 0.02 0.02 0.01 0.01 0.01 0.01 0.01 0.01 0.01 0.01 0.01 0.01 0.01 0.02 0.02 0.02
0.04 0.04 0.04 0.04 0.04 0.03 0.03 0.03 0.01 0.01 0.01 0.01 0.01 0.01 0.01 0.02 0.02 0.02 0.02 0.03 0.03 0.03 0.03 0.03 0.01 0.01 0.01 0.02 0.02 0.01 0.01 0.01 0.01 0.01 0.01 0.01 0.01 0.01 0.01 0.02 0.02 0.01 0.02
0.03 0.03 0.05 0.06 0.06 0.06 0.05 0.04 0.02 0.03 0.02 0.01 0.01 0.01 0.00 0.01 0.02 0.02 0.02 0.02 0.02 0.02 0.02 0.03 0.03 0.02 0.01 0.02 0.02 0.02 0.01 0.01 0.01 0.01 0.01 0.01 0.01 0.01 0.02 0.02 0.02 0.02 0.02
0.03 0.04 0.05 0.07 0.08 0.08 0.07 0.05 0.02 0.02 0.02 0.02 0.02 0.01 0.01 0.01 0.01 0.02 0.02 0.01 0.01 0.02 0.02 0.02 0.03 0.03 0.03 0.03 0.02 0.02 0.01 0.01 0.00 0.00 0.01 0.01 0.01 0.02 0.03 0.02 0.02 0.02 0.02
0.01 0.02 0.02 0.03 0.05 0.06 0.07 0.06 0.04 0.03 0.02 0.02 0.04 0.05 0.03 0.02 0.01 0.02 0.02 0.01 0.01 0.01 0.02 0.03 0.02 0.02 0.02 0.03 0.02 0.02 0.01 0.01 0.01 0.00 0.01 0.01 0.01 0.01 0.02 0.02 0.02 0.02 0.02
0.01 0.02 0.02 0.02 0.03 0.04 0.05 0.05 0.04 0.03 0.02 0.02 0.02 0.07 0.06 0.03 0.02 0.02 0.02 0.02 0.03 0.03 0.03 0.04 0.03 0.01 0.01 0.02 0.03 0.02 0.01 0.01 0.01 0.01 0.01 0.01 0.01 0.01 0.02 0.02 0.03 0.03 0.03
0.02 0.03 0.02 0.02 0.03 0.04 0.04 0.04 0.03 0.02 0.01 0.01 0.02 0.04 0.04 0.02 0.02 0.02 0.02 0.03 0.02 0.03 0.03 0.03 0.04 0.03 0.02 0.02 0.02 0.02 0.02 0.02 0.01 0.01 0.01 0.00 0.01 0.01 0.01 0.02 0.02 0.03 0.03
0.02 0.03 0.03 0.03 0.03 0.04 0.04 0.03 0.02 0.02 0.02 0.01 0.02 0.02 0.02 0.02 0.01 0.01 0.01 0.02 0.02 0.02 0.02 0.02 0.02 0.02 0.02 0.02 0.02 0.02 0.02 0.02 0.01 0.01 0.01 0.01 0.01 0.01 0.01 0.02 0.02 0.02 0.03
0.02 0.01 0.02 0.02 0.03 0.04 0.03 0.02 0.02 0.02 0.02 0.02 0.02 0.02 0.01 0.01 0.01 0.02 0.02 0.02 0.02 0.02 0.02 0.02 0.02 0.02 0.02 0.02 0.02 0.01 0.01 0.01 0.01 0.02 0.01 0.02 0.03 0.02 0.01 0.01 0.01 0.02 0.04
0.01 0.02 0.02 0.02 0.02 0.02 0.02 0.01 0.01 0.01 0.02 0.02 0.02 0.02 0.02 0.02 0.02 0.02 0.02 0.02 0.02 0.02 0.03 0.02 0.02 0.02 0.02 0.02 0.02 0.02 0.02 0.02 0.02 0.02 0.02 0.03 0.02 0.02 0.02 0.02 0.02 0.03 0.04
0.01 0.01 0.02 0.02 0.01 0.01 0.01 0.01 0.01 0.01 0.02 0.01 0.02 0.02 0.02 0.03 0.03 0.03 0.03 0.04 0.04 0.03 0.05 0.04 0.03 0.03 0.03 0.02 0.02 0.02 0.02 0.02 0.02 0.03 0.03 0.03 0.02 0.02 0.03 0.03 0.04 0.04 0.04
MSLP
1004.69 1005.01 1005.39 1005.82 1006.30 1006.85 1007.50 1008.24 1009.09 1009.99 1010.92 1011.80 1012.58 1013.23 1013.71 1014.03 1014.23 1014.35 1014.46 1014.62 1014.86 1015.21 1015.66 1016.21 1016.80 1017.41 1017.99 1018.53 1019.03 1019.47 1019.89 1020.28 1020.66 1021.03 1021.37 1021.68 1021.91 1022.07 1022.13 1022.10 1022.02 1021.90 1021.78
1004.60 1004.90 1005.24 1005.63 1006.06 1006.58 1007.19 1007.93 1008.80 1009.75 1010.74 1011.72 1012.60 1013.34 1013.91 1014.30 1014.53 1014.67 1014.77 1014.90 1015.11 1015.43 1015.87 1016.40 1016.99 1017.59 1018.18 1018.72 1019.21 1019.65 1020.05 1020.43 1020.81 1021.19 1021.55 1021.89 1022.17 1022.38 1022.49 1022.52 1022.47 1022.37 1022.26
1004.48 1004.80 1005.13 1005.49 1005.88 1006.34 1006.91 1007.60 1008.44 1009.40 1010.43 1011.47 1012.43 1013.27 1013.93 1014.40 1014.70 1014.89 1015.02 1015.16 1015.37 1015.68 1016.10 1016.61 1017.18 1017.77 1018.34 1018.86 1019.32 1019.72 1020.10 1020.45 1020.82 1021.19 1021.57 1021.95 1022.28 1022.56 1022.76 1022.86 1022.88 1022.83 1022.74
1004.27 1004.64 1005.00 1005.36 1005.73 1006.14 1006.64 1007.27 1008.06 1008.98 1010.00 1011.06 1012.08 1012.99 1013.74 1014.31 1014.71 1014.97 1015.16 1015.35 1015.58 1015.89 1016.30 1016.80 1017.35 1017.91 1018.45 1018.93 1019.36 1019.72 1020.06 1020.38 1020.72 1021.08 1021.47 1021.87 1022.26 1022.61 1022.89 1023.09 1023.19 1023.21 1023.16
1003.90 1004.36 1004.80 1005.19 1005.56 1005.94 1006.38 1006.94 1007.65 1008.51 1009.49 1010.54 1011.59 1012.55 1013.39 1014.05 1014.55 1014.91 1015.18 1015.43 1015.70 1016.03 1016.44 1016.93 1017.45 1017.99 1018.49 1018.95 1019.33 1019.67 1019.96 1020.25 1020.55 1020.90 1021.28 1021.70 1022.13 1022.54 1022.89 1023.17 1023.35 1023.45 1023.45
1003.36 1003.93 1004.46 1004.92 1005.33 1005.70 1006.11 1006.60 1007.24 1008.03 1008.95 1009.96 1011.00 1012.00 1012.89 1013.64 1014.24 1014.69 1015.06 1015.37 1015.69 1016.05 1016.47 1016.95 1017.46 1017.97 1018.46 1018.89 1019.25 1019.57 1019.83 1020.09 1020.38 1020.70 1021.07 1021.48 1021.92 1022.36 1022.77 1023.11 1023.36 1023.52 1023.58
1002.68 1003.36 1003.99 1004.53 1004.99 1005.38 1005.78 1006.24 1006.82 1007.54 1008.40 1009.36 1010.38 1011.39 1012.32 1013.14 1013.81 1014.36 1014.80 1015.19 1015.56 1015.94 1016.37 1016.85 1017.35 1017.85 1018.32 1018.75 1019.12 1019.43 1019.70 1019.95 1020.22 1020.52 1020.87 1021.26 1021.69 1022.14 1022.56 1022.93 1023.24 1023.45 1023.56
1001.94 1002.68 1003.38 1004.00 1004.52 1004.96 1005.38 1005.84 1006.39 1007.06 1007.87 1008.80 1009.79 1010.78 1011.73 1012.59 1013.32 1013.93 1014.45 1014.89 1015.29 1015.71 1016.15 1016.62 1017.11 1017.61 1018.10 1018.54 1018.93 1019.27 1019.57 1019.84 1020.11 1020.40 1020.72 1021.09 1021.49 1021.91 1022.32 1022.70 1023.02 1023.26 1023.41
1001.20 1001.93 1002.66 1003.33 1003.90 1004.41 1004.88 1005.37 1005.93 1006.60 1007.39 1008.28 1009.24 1010.22 1011.17 1012.04 1012.81 1013.47 1014.02 1014.50 1014.94 1015.37 1015.82 1016.29 1016.79 1017.30 1017.80 1018.28 1018.71 1019.10 1019.44 1019.75 1020.04 1020.34 1020.65 1020.98 1021.34 1021.72 1022.09 1022.45 1022.77 1023.03 1023.21
1000.52 1001.18 1001.87 1002.54 1003.17 1003.74 1004.28 1004.84 1005.46 1006.15 1006.95 1007.83 1008.77 1009.73 1010.66 1011.53 1012.31 1012.99 1013.57 1014.08 1014.54 1014.99 1015.44 1015.92 1016.42 1016.94 1017.47 1017.99 1018.48 1018.92 1019.33 1019.69 1020.02 1020.33 1020.64 1020.94 1021.26 1021.59 1021.92 1022.25 1022.55 1022.81 1023.02
999.93 1000.44 1001.03 1001.67 1002.32 1002.96 1003.60 1004.26 1004.96 1005.72 1006.55 1007.44 1008.37 1009.31 1010.23 1011.08 1011.86 1012.54 1013.14 1013.67 1014.15 1014.60 1015.07 1015.55 1016.06 1016.60 1017.16 1017.71 1018.25 1018.76 1019.22 1019.64 1020.02 1020.35 1020.66 1020.96 1021.24 1021.53 1021.83 1022.12 1022.40 1022.66 1022.88
999.38 999.69 1000.16 1000.74 1001.40 1002.11 1002.86 1003.64 1004.46 1005.32 1006.21 1007.12 1008.05 1008.97 1009.86 1010.69 1011.45 1012.13 1012.74 1013.29 1013.79 1014.27 1014.76 1015.25 1015.78 1016.33 1016.90 1017.48 1018.06 1018.61 1019.12 1019.59 1020.00 1020.36 1020.69 1020.98 1021.25 1021.52 1021.78 1022.05 1022.32 1022.58 1022.82
998.79 998.89 999.23 999.76 1000.44 1001.23 1002.10 1003.02 1003.97 1004.94 1005.90 1006.86 1007.79 1008.69 1009.54 1010.34 1011.09 1011.77 1012.39 1012.96 1013.50 1014.02 1014.53 1015.06 1015.60 1016.16 1016.74 1017.32 1017.91 1018.48 1019.01 1019.50 1019.94 1020.33 1020.67 1020.97 1021.24 1021.50 1021.77 1022.03 1022.30 1022.57 1022.82
998.07 998.01 998.24 998.74 999.46 1000.35 1001.36 1002.43 1003.53 1004.60 1005.65 1006.64 1007.57 1008.44 1009.26 1010.03 1010.75 1011.43 1012.07 1012.69 1013.27 1013.84 1014.40 1014.96 1015.52 1016.09 1016.66 1017.24 1017.81 1018.36 1018.89 1019.38 1019.82 1020.22 1020.57 1020.89 1021.18 1021.45 1021.72 1022.00 1022.29 1022.57 1022.85
997.19 997.02 997.20 997.71 998.50 999.51 1000.67 1001.89 1003.13 1004.31 1005.42 1006.44 1007.37 1008.22 1009.00 1009.73 1010.44 1011.12 1011.79 1012.45 1013.09 1013.73 1014.34 1014.94 1015.53 1016.10 1016.66 1017.20 1017.74 1018.25 1018.75 1019.21 1019.64 1020.04 1020.39 1020.72 1021.03 1021.33 1021.63 1021.94 1022.25 1022.56 1022.86
996.14 995.94 996.14 996.72 997.61 998.76 1000.06 1001.43 1002.78 1004.06 1005.22 1006.26 1007.17 1007.99 1008.73 1009.43 1010.12 1010.81 1011.51 1012.22 1012.93 1013.63 1014.31 1014.95 1015.56 1016.14 1016.68 1017.19 1017.67 1018.13 1018.58 1019.00 1019.40 1019.78 1020.14 1020.48 1020.81 1021.14 1021.48 1021.81 1022.16 1022.50 1022.82
995.03 994.88 995.15 995.83 996.84 998.12 999.55 1001.03 1002.48 1003.82 1005.02 1006.06 1006.96 1007.74 1008.45 1009.12 1009.79 1010.49 1011.22 1011.98 1012.75 1013.51 1014.24 1014.93 1015.57 1016.14 1016.66 1017.14 1017.57 1017.98 1018.37 1018.75 1019.12 1019.48 1019.84 1020.20 1020.55 1020.91 1021.27 1021.64 1022.01 1022.37 1022.72
994.02 993.97 994.35 995.13 996.26 997.64 999.16 1000.72 1002.22 1003.59 1004.80 1005.83 1006.71 1007.46 1008.14 1008.80 1009.46 1010.17 1010.92 1011.71 1012.53 1013.33 1014.11 1014.83 1015.48 1016.05 1016.56 1017.01 1017.41 1017.78 1018.13 1018.48 1018.83 1019.18 1019.54 1019.91 1020.28 1020.65 1021.04 1021.43 1021.82 1022.20 1022.55
993.33 993.38 993.86 994.72 995.91 997.34 998.89 1000.46 1001.96 1003.33 1004.52 1005.54 1006.40 1007.14 1007.81 1008.46 1009.13 1009.85 1010.62 1011.43 1012.26 1013.09 1013.88 1014.61 1015.26 1015.84 1016.33 1016.77 1017.16 1017.52 1017.86 1018.20 1018.55 1018.91 1019.28 1019.65 1020.04 1020.43 1020.82 1021.22 1021.61 1021.98 1022.34
993.13 993.26 993.79 994.67 995.85 997.23 998.73 1000.25 1001.70 1003.02 1004.18 1005.18 1006.03 1006.78 1007.46 1008.13 1008.82 1009.54 1010.32 1011.13 1011.95 1012.77 1013.55 1014.26 1014.91 1015.48 1015.97 1016.41 1016.81 1017.19 1017.55 1017.92 1018.29 1018.68 1019.07 1019.46 1019.86 1020.26 1020.65 1021.03 1021.41 1021.76 1022.10
993.54 993.69 994.18 995.00 996.07 997.33 998.69 1000.07 1001.41 1002.65 1003.76 1004.74 1005.60 1006.38 1007.10 1007.81 1008.52 1009.27 1010.04 1010.83 1011.63 1012.41 1013.14 1013.82 1014.44 1014.99 1015.49 1015.95 1016.38 1016.80 1017.21 1017.63 1018.06 1018.49 1018.91 1019.33 1019.74 1020.13 1020.51 1020.87 1021.22 1021.55 1021.85
994.55 994.65 995.03 995.68 996.55 997.59 998.73 999.92 1001.09 1002.21 1003.26 1004.22 1005.11 1005.93 1006.72 1007.49 1008.25 1009.02 1009.79 1010.56 1011.30 1012.02 1012.69 1013.32 1013.89 1014.42 1014.92 1015.40 1015.88 1016.36 1016.84 1017.33 1017.83 1018.31 1018.78 1019.23 1019.65 1020.04 1020.40 1020.73 1021.04 1021.33 1021.60
996.07 996.04 996.23 996.64 997.23 997.98 998.84 999.78 1000.75 1001.74 1002.71 1003.65 1004.57 1005.46 1006.32 1007.17 1007.99 1008.79 1009.56 1010.29 1010.99 1011.64 1012.24 1012.79 1013.31 1013.82 1014.32 1014.82 1015.34 1015.88 1016.44 1017.01 1017.57 1018.12 1018.64 1019.12 1019.54 1019.93 1020.26 1020.56 1020.84 1021.09 1021.33
997.89 997.69 997.65 997.77 998.04 998.45 999.00 999.66 1000.42 1001.25 1002.13 1003.06 1004.00 1004.96 1005.90 1006.83 1007.71 1008.55 1009.33 1010.04 1010.68 1011.26 1011.79 1012.28 1012.75 1013.22 1013.71 1014.24 1014.80 1015.39 1016.02 1016.65 1017.28 1017.87 1018.43 1018.92 1019.36 1019.74 1020.05 1020.33 1020.57 1020.80 1021.02
999.79 999.41 999.12 998.94 998.89 998.97 999.20 999.58 1000.12 1000.79 1001.58 1002.47 1003.44 1004.44 1005.45 1006.45 1007.39 1008.26 1009.05 1009.74 1010.35 1010.88 1011.35 1011.78 1012.21 1012.66 1013.15 1013.68 1014.27 1014.90 1015.57 1016.24 1016.90 1017.53 1018.11 1018.61 1019.05 1019.42 1019.72 1019.98 1020.21 1020.43 1020.64
1001.53 1000.99 1000.49 1000.05 999.71 999.50 999.45 999.59 999.91 1000.43 1001.12 1001.95 1002.90 1003.92 1004.98 1006.01 1006.99 1007.89 1008.68 1009.37 1009.96 1010.46 1010.90 1011.30 1011.71 1012.15 1012.63 1013.16 1013.76 1014.41 1015.09 1015.77 1016.44 1017.07 1017.64 1018.14 1018.57 1018.93 1019.23 1019.49 1019.71 1019.93 1020.15
Thickness
5732 5732 5730 5728 5726 5723 5721 5719 5716 5715 5713 5710 5707 5704 5702 5702 5702 5702 5701 5701 5701 5700 5699 5698 5698 5697 5695 5695 5695 5694 5692 5692 5693 5691 5689 5691 5693 5693 5693 5693 5692 5692 5693
5728 5727 5726 5724 5722 5719 5717 5716 5714 5712 5710 5707 5705 5703 5700 5699 5698 5697 5697 5696 5696 5695 5695 5693 5692 5692 5690 5689 5689 5688 5685 5686 5687 5684 5680 5677 5679 5683 5686 5686 5685 5685 5687
5725 5723 5722 5720 5718 5716 5715 5714 5711 5710 5708 5705 5702 5700 5697 5694 5692 5691 5690 5691 5691 5690 5690 5689 5688 5687 5686 5684 5683 5683 5680 5677 5680 5681 5676 5669 5666 5670 5675 5678 5678 5679 5679
5726 5722 5720 5717 5716 5714 5714 5712 5710 5708 5705 5703 5698 5694 5690 5687 5688 5687 5687 5687 5687 5686 5684 5684 5683 5682 5681 5679 5679 5678 5676 5674 5671 5673 5673 5672 5669 5664 5662 5667 5670 5672 5672
5723 5720 5718 5716 5715 5713 5711 5709 5707 5704 5702 5700 5697 5693 5689 5687 5686 5686 5683 5682 5682 5681 5679 5678 5678 5676 5675 5674 5673 5672 5671 5670 5667 5666 5665 5665 5665 5664 5659 5656 5659 5662 5665
5720 5718 5716 5713 5711 5709 5707 5706 5702 5699 5698 5696 5694 5690 5687 5684 5682 5680 5678 5677 5676 5675 5674 5674 5673 5671 5670 5669 5668 5667 5666 5665 5664 5662 5661 5659 5656 5655 5654 5652 5652 5653 5656
5715 5712 5709 5706 5703 5701 5700 5699 5697 5694 5693 5692 5690 5687 5684 5682 5679 5676 5674 5672 5670 5669 5669 5669 5667 5666 5665 5664 5663 5661 5660 5660 5658 5657 5656 5655 5654 5653 5651 5649 5648 5648 5650
5710 5707 5704 5701 5698 5696 5695 5693 5691 5689 5688 5687 5685 5684 5682 5678 5676 5674 5671 5669 5667 5666 5665 5664 5662 5661 5660 5659 5657 5656 5655 5654 5653 5652 5650 5649 5649 5648 5647 5645 5643 5641 5642
5706 5703 5700 5697 5694 5692 5690 5689 5686 5683 5683 5682 5681 5679 5678 5675 5673 5671 5668 5666 5665 5663 5660 5658 5656 5655 5654 5652 5651 5649 5648 5647 5646 5645 5644 5642 5642 5642 5642 5641 5639 5636 5633
5701 5698 5696 5693 5691 5688 5686 5684 5682 5679 5677 5677 5676 5674 5671 5670 5668 5665 5663 5661 5659 5657 5655 5652 5650 5648 5647 5646 5644 5643 5641 5640 5639 5638 5636 5635 5635 5635 5635 5634 5634 5633 5631
5694 5693 5690 5688 5686 5683 5681 5678 5676 5673 5671 5670 5669 5667 5665 5663 5662 5659 5656 5655 5653 5651 5648 5646 5644 5642 5640 5638 5636 5635 5634 5632 5631 5630 5629 5628 5628 5627 5627 5627 5626 5626 5625
5690 5688 5685 5682 5679 5677 5674 5672 5670 5667 5665 5663 5662 5659 5658 5656 5654 5651 5649 5647 5645 5643 5641 5639 5636 5634 5632 5630 5627 5626 5625 5623 5622 5621 5620 5619 5620 5618 5618 5618 5617 5617 5618
5684 5681 5678 5674 5672 5670 5668 5666 5664 5661 5659 5656 5654 5652 5650 5647 5645 5643 5641 5640 5637 5635 5633 5631 5628 5625 5623 5620 5618 5617 5616 5615 5614 5613 5612 5611 5610 5609 5609 5609 5609 5609 5610
5675 5673 5669 5667 5666 5664 5662 5660 5657 5655 5652 5649 5647 5644 5641 5639 5637 5635 5633 5631 5629 5626 5623 5621 5619 5616 5614 5611 5609 5607 5606 5605 5604 5604 5603 5602 5601 5600 5600 5600 5600 5600 5600
5666 5664 5661 5660 5658 5657 5655 5653 5650 5648 5646 5643 5640 5636 5634 5631 5629 5626 5624 5622 5619 5617 5614 5611 5609 5607 5604 5601 5599 5597 5597 5595 5594 5593 5593 5592 5592 5592 5591 5591 5590 5590 5589
5658 5656 5655 5653 5651 5649 5647 5645 5644 5642 5640 5636 5632 5630 5627 5623 5620 5618 5615 5612 5609 5606 5603 5600 5598 5596 5594 5591 5589 5587 5586 5585 5584 5583 5582 5582 5581 5581 5581 5581 5581 5581 5580
5650 5649 5647 5646 5644 5643 5641 5638 5637 5635 5632 5628 5625 5622 5619 5615 5611 5609 5606 5602 5599 5596 5593 5590 5587 5585 5583 5581 5580 5579 5578 5576 5576 5575 5573 5573 5572 5569 5568 5569 5571 5571 5572
5643 5642 5641 5639 5638 5637 5635 5633 5630 5627 5624 5620 5617 5614 5610 5606 5603 5600 5596 5593 5590 5587 5584 5581 5578 5576 5575 5573 5572 5571 5569 5568 5567 5566 5565 5563 5561 5560 5558 5558 5559 5560 5562
5638 5635 5634 5633 5631 5629 5627 5625 5622 5619 5615 5612 5609 5606 5603 5599 5595 5592 5588 5585 5582 5579 5576 5574 5571 5568 5567 5565 5564 5562 5561 5560 5559 5557 5556 5554 5552 5552 5551 5550 5550 5550 5552
5632 5629 5627 5626 5623 5621 5619 5616 5613 5611 5608 5605 5602 5598 5595 5591 5588 5585 5582 5579 5576 5572 5569 5567 5565 5563 5560 5559 5557 5555 5553 5551 5550 5549 5547 5546 5545 5544 5543 5542 5541 5541 5543
5624 5622 5619 5616 5615 5614 5612 5608 5605 5603 5601 5598 5595 5591 5587 5584 5581 5578 5575 5572 5569 5565 5563 5560 5559 5556 5554 5552 5549 5547 5545 5543 5541 5540 5539 5538 5537 5536 5536 5535 5534 5534 5535
5616 5613 5610 5608 5607 5606 5604 5600 5597 5596 5594 5591 5588 5584 5581 5578 5575 5571 5568 5565 5562 5558 5556 5553 5551 5549 5547 5545 5542 5540 5539 5537 5535 5533 5531 5531 5530 5529 5528 5528 5528 5528 5528
5607 5605 5602 5599 5598 5597 5596 5592 5590 5589 5586 5583 5580 5577 5575 5572 5568 5565 5561 5558 5555 5552 5550 5547 5545 5542 5540 5538 5536 5533 5531 5530 5528 5527 5526 5525 5524 5522 5521 5521 5521 5521 5520
5598 5596 5593 5590 5589 5589 5588 5586 5584 5582 5579 5576 5573 5570 5567 5564 5561 5558 5556 5552 5549 5546 5544 5541 5539 5536 5534 5531 5528 5526 5524 5523 5521 5520 5519 5518 5517 5516 5515 5515 5514 5513 5513
5589 5587 5585 5583 5581 5581 5579 5578 5576 5574 5571 5568 5566 5563 5560 5557 5554 5551 5548 5546 5544 5542 5539 5537 5534 5531 5529 5527 5525 5522 5519 5517 5516 5514 5513 5512 5510 5509 5508 5508 5507 5507 5507
5582 5580 5578 5576 5575 5573 5571 5569 5568 5567 5564 5561 5558 5555 5552 5549 5546 5543 5540 5538 5537 5536 5534 5533 5531 5528 5526 5523 5519 5517 5516 5514 5513 5510 5508 5507 5506 5505 5504 5503 5502 5501 5500